Printer-friendly version

IAU Minor Planet Center

Minor Planet Center

MPEC 2006-P12 : COMET P/2006 H1 (McNAUGHT)

The following Minor Planet Electronic Circular may be linked-to from your own Web pages, but must not otherwise be redistributed electronically.


Read MPEC 2006-P11 Read MPEC 2006-P13


M.P.E.C. 2006-P12                                Issued 2006 Aug. 4, 15:52 UT

     The Minor Planet Electronic Circulars contain information on unusual
         minor planets and routine data on comets.  They are published
   on behalf of Commission 20 of the International Astronomical Union by the
          Minor Planet Center, Smithsonian Astrophysical Observatory,
                          Cambridge, MA 02138, U.S.A.

                  Supported in part by the Brinson Foundation
                  Supported in part by the TABASGO Foundation
             Prepared using the Tamkin Foundation Computer Network

                              MPC@CFA.HARVARD.EDU
          URL http://cfa-www.harvard.edu/iau/mpc.html  ISSN 1523-6714

                          COMET P/2006 H1 (McNAUGHT)

Observations:
    PK06H010  C2006 07 28.00709 23 58 38.60 -08 00 33.9          18.1 N EP012130
    PK06H010  C2006 07 28.01687 23 58 38.61 -08 00 32.2          17.5 N EP012130
    PK06H010  C2006 07 28.02664 23 58 38.59 -08 00 28.7          18.1 N EP012130
    PK06H010  C2006 07 28.69167 23 58 39.70 -07 57 44.0          17.8 T EP012423
    PK06H010  C2006 07 28.71597 23 58 39.68 -07 57 38.7          17.4 T EP012423
    PK06H010  C2006 07 29.66841 23 58 40.14 -07 53 57.4          18.3 T EP012423
    PK06H010  C2006 07 29.69191 23 58 40.22 -07 53 50.8          17.9 T EP012423
    PK06H010  C2006 07 31.02023 23 58 38.50 -07 48 56.4                 EP012204
    PK06H010  C2006 07 31.02598 23 58 38.46 -07 48 55.3          17.1 N EP012204
    PK06H010  C2006 08 03.31756 23 58 21.82 -07 37 12.9          17.7 N EP012850
    PK06H010  C2006 08 03.33293 23 58 21.69 -07 37 09.1          18.5 N EP012850
    PK06H010  C2006 08 03.34839 23 58 21.54 -07 37 06.4          18.5 N EP012850
    PK06H010  C2006 08 03.36381 23 58 21.40 -07 37 02.7          18.2 N EP012850
    PK06H010  C2006 08 04.33100 23 58 13.24 -07 33 48.1          18.1 N EP012850
    PK06H010  C2006 08 04.34633 23 58 13.04 -07 33 45.0          18.2 N EP012850
    PK06H010  C2006 08 04.36172 23 58 12.87 -07 33 41.9          18.2 N EP012850
    PK06H010  C2006 08 04.37779 23 58 12.71 -07 33 38.5          18.5 N EP012850
    PK06H010  C2006 08 04.39226 23 58 12.53 -07 33 36.2          18.4 N EP012850

Observer details:
130 Lumezzane.  Observers M. Casali, W. Marinello, M. Micheli, G. Pizzetti,
    A. Soffiantini.  Measurers M. Micheli, A. Soffiantini.  0.40-m f/4.5
    reflector + CCD.
204 Schiaparelli Observatory.  Observers L. Buzzi, F. Luppi.  Measurer
    L. Buzzi.  0.60-m f/4.64 reflector + CCD.
423 North Ryde.  Observer S. G. McAndrew.  0.20-m f/4 hyperbolic astrograph
    + CCD.
850 Cordell-Lorenz Observatory, Sewanee.  Observer D. T. Durig.  0.30-m f/5
    Schmidt-Cassegrain + CCD.

Orbital elements:
    P/2006 H1 (McNaught)
Epoch 2006 May 25.0 TT = JDT 2453880.5
T 2006 May 7.38292 TT                                   MPC
q   2.3785243            (2000.0)            P               Q
n   0.07271261     Peri.  310.13558     +0.64629879     +0.76308428
a   5.6849882      Node     0.13083     -0.61472006     +0.52103554
e   0.5816132      Incl.   12.87045     -0.45212511     +0.38239294
P  13.55
Residuals in seconds of arc
060429 E12  0.0   0.4-    060505 415  0.3-  1.1-    060726 215  0.3+  0.2-
060429 E12  0.2-  0.4+    060509 E12  0.3+  0.4+    060726 215  0.2-  0.3+
060429 E12  0.1+  0.3-    060509 E12  0.1-  0.0     060728 130  0.4+  0.2-
060429 E12  0.3+  0.5-    060509 E12  0.8+  0.1+    060728 130  0.4+  0.8-
060430 474  0.1+  0.2+    060509 E12  0.7+  0.9+    060728 130  0.1-  0.4+
060430 474  0.3-  0.0     060516 E12  0.7+  0.7+    060728 423  0.6-  0.4+
060430 474  0.5-  0.7+    060516 E12  0.6+  0.1+    060728 423  0.8-  0.0
060430 474  0.3-  0.2+    060604 E12  1.5-  0.2-    060729 423 (2.1-  0.9-)
060501 673  1.3-  1.0-    060604 E12  1.7-  0.4-    060729 423  0.2-  0.3+
060501 673  0.8-  0.1-    060604 E12 (2.6-  0.4-)   060731 204  0.0   0.1+
060502 E12  0.4-  0.1+    060604 E12  1.3-  0.3+    060731 204  0.2-  0.1-
060502 E12  0.2+  0.6+    060708 423  0.2+  0.1-    060803 850  0.1+  0.8-
060502 E12  0.2+  0.0     060708 423  0.8+  0.7+    060803 850  0.3+  0.2-
060502 E12  1.0-  0.3-    060710 423  0.2-  0.7+    060803 850  0.2+  0.6-
060503 E12  0.6+  0.4+    060710 423  0.7+  0.2-    060803 850  0.3+  0.1-
060503 E12  0.7+  0.3-    060721 585  0.9-  0.1+    060804 850  0.2+  0.4-
060503 E12  0.1+  0.4-    060721 585  0.0   1.5+    060804 850  0.3-  0.3-
060504 E12  0.8+  0.0     060721 585  1.2+  0.9+    060804 850  0.3-  0.3-
060504 E12  0.5-  0.9-    060721 585  0.5+  1.0+    060804 850  0.0   0.1-
060504 E12  0.6+  0.5-    060722 423  0.1-  0.1-    060804 850  0.3-  0.6-
060504 E12  0.6+  0.1-    060722 423  0.6-  0.1-
060505 415  1.2+  0.3+    060726 215  0.6+  0.5-

Brian G. Marsden             (C) Copyright 2006 MPC           M.P.E.C. 2006-P12

Read MPEC 2006-P11 Read MPEC 2006-P13


Our Web policy. Index to the CBAT/MPC/ICQ pages.


Valid HTML 4.01!